Time,TemperatureF,DewpointF,PressureIn,WindDirection,WindDirectionDegrees,WindSpeedMPH,WindSpeedGustMPH,Humidity,HourlyPrecipIn,Conditions,Clouds,dailyrainin,SoftwareType,DateUTC
2013-04-29 00:02:00,39.0,25.0,-100.00,SE,125,7.0,10.0,58,-99.99,,,-99.99,,2013-04-29 06:02:00,
2013-04-29 00:11:00,39.0,25.0,-100.00,SE,125,7.0,10.0,58,-99.99,,,-99.99,,2013-04-29 06:11:00,
2013-04-29 00:21:00,39.0,26.0,-100.00,SE,135,10.0,11.0,57,-99.99,,,-99.99,,2013-04-29 06:21:00,
2013-04-29 00:32:00,40.0,25.0,-100.00,SE,125,10.0,14.0,55,-99.99,,,-99.99,,2013-04-29 06:32:00,
2013-04-29 00:42:00,40.0,25.0,-100.00,SE,125,10.0,14.0,55,-99.99,,,-99.99,,2013-04-29 06:42:00,
2013-04-29 00:52:00,39.0,25.0,-100.00,SE,130,9.0,11.0,56,-99.99,,,-99.99,,2013-04-29 06:52:00,
2013-04-29 01:01:00,37.0,24.0,-100.00,SE,135,11.0,12.0,58,-99.99,,,-99.99,,2013-04-29 07:01:00,
2013-04-29 01:11:00,37.0,24.0,-100.00,SE,135,11.0,12.0,58,-99.99,,,-99.99,,2013-04-29 07:11:00,
2013-04-29 01:21:00,37.0,25.0,-100.00,SE,135,11.0,13.0,60,-99.99,,,-99.99,,2013-04-29 07:21:00,
2013-04-29 01:32:00,39.0,25.0,-100.00,SE,130,12.0,16.0,56,-99.99,,,-99.99,,2013-04-29 07:32:00,
2013-04-29 01:42:00,39.0,25.0,-100.00,SE,130,12.0,16.0,56,-99.99,,,-99.99,,2013-04-29 07:42:00,
2013-04-29 01:52:00,39.0,25.0,-100.00,SE,135,13.0,19.0,56,-99.99,,,-99.99,,2013-04-29 07:52:00,
2013-04-29 02:03:00,39.0,25.0,-100.00,SE,135,13.0,17.0,57,-99.99,,,-99.99,,2013-04-29 08:03:00,
2013-04-29 02:11:00,39.0,25.0,-100.00,SE,135,13.0,17.0,57,-99.99,,,-99.99,,2013-04-29 08:11:00,
2013-04-29 02:21:00,39.0,25.0,-100.00,SE,140,12.0,16.0,56,-99.99,,,-99.99,,2013-04-29 08:21:00,
2013-04-29 02:32:00,41.0,26.0,-100.00,SSE,155,16.0,19.0,54,-99.99,,,-99.99,,2013-04-29 08:32:00,
2013-04-29 02:42:00,41.0,26.0,-100.00,SSE,155,16.0,19.0,54,-99.99,,,-99.99,,2013-04-29 08:42:00,
2013-04-29 02:52:00,41.0,26.0,-100.00,SSE,155,16.0,21.0,54,-99.99,,,-99.99,,2013-04-29 08:52:00,
2013-04-29 03:01:00,40.0,25.0,-100.00,SSE,160,13.0,18.0,54,-99.99,,,-99.99,,2013-04-29 09:01:00,
2013-04-29 03:12:00,40.0,25.0,-100.00,SSE,160,13.0,18.0,54,-99.99,,,-99.99,,2013-04-29 09:12:00,
2013-04-29 03:21:00,42.0,26.0,-100.00,SSE,155,17.0,21.0,52,-99.99,,,-99.99,,2013-04-29 09:21:00,
2013-04-29 03:33:00,40.0,24.0,-100.00,SSE,155,13.0,17.0,54,-99.99,,,-99.99,,2013-04-29 09:33:00,
2013-04-29 03:42:00,40.0,24.0,-100.00,SSE,155,13.0,17.0,54,-99.99,,,-99.99,,2013-04-29 09:42:00,
2013-04-29 03:53:00,39.0,24.0,-100.00,SSE,155,13.0,17.0,55,-99.99,,,-99.99,,2013-04-29 09:53:00,
2013-04-29 04:02:00,38.0,24.0,-100.00,SSE,160,13.0,17.0,56,-99.99,,,-99.99,,2013-04-29 10:02:00,
2013-04-29 04:12:00,38.0,24.0,-100.00,SSE,160,13.0,17.0,56,-99.99,,,-99.99,,2013-04-29 10:12:00,
2013-04-29 04:23:00,38.0,24.0,-100.00,SSE,155,14.0,16.0,57,-99.99,,,-99.99,,2013-04-29 10:23:00,
2013-04-29 04:32:00,37.0,24.0,-100.00,SSE,160,14.0,17.0,58,-99.99,,,-99.99,,2013-04-29 10:32:00,
2013-04-29 04:42:00,37.0,24.0,-100.00,SSE,160,14.0,17.0,58,-99.99,,,-99.99,,2013-04-29 10:42:00,
2013-04-29 04:52:00,37.0,24.0,-100.00,SSE,155,14.0,18.0,59,-99.99,,,-99.99,,2013-04-29 10:52:00,
2013-04-29 05:02:00,37.0,25.0,-100.00,South,170,16.0,21.0,60,-99.99,,,-99.99,,2013-04-29 11:02:00,
2013-04-29 05:12:00,37.0,25.0,-100.00,South,170,16.0,21.0,60,-99.99,,,-99.99,,2013-04-29 11:12:00,
2013-04-29 05:21:00,36.0,25.0,-100.00,SSE,165,13.0,18.0,62,-99.99,,,-99.99,,2013-04-29 11:21:00,
2013-04-29 05:32:00,37.0,28.0,-100.00,South,175,12.0,18.0,67,-99.99,,,-99.99,,2013-04-29 11:32:00,
2013-04-29 05:42:00,37.0,28.0,-100.00,South,175,12.0,18.0,67,-99.99,,,-99.99,,2013-04-29 11:42:00,
2013-04-29 05:52:00,38.0,29.0,-100.00,South,175,10.0,16.0,70,-99.99,,,-99.99,,2013-04-29 11:52:00,
2013-04-29 06:01:00,40.0,33.0,-100.00,SSE,160,15.0,19.0,74,-99.99,,,-99.99,,2013-04-29 12:01:00,
2013-04-29 06:12:00,40.0,33.0,-100.00,SSE,160,15.0,19.0,74,-99.99,,,-99.99,,2013-04-29 12:12:00,
2013-04-29 06:22:00,40.0,33.0,-100.00,SSE,165,14.0,19.0,75,-99.99,,,-99.99,,2013-04-29 12:22:00,
2013-04-29 06:32:00,41.0,34.0,-100.00,South,180,14.0,17.0,75,-99.99,,,-99.99,,2013-04-29 12:32:00,
2013-04-29 06:42:00,41.0,34.0,-100.00,South,180,14.0,17.0,75,-99.99,,,-99.99,,2013-04-29 12:42:00,
2013-04-29 06:52:00,42.0,34.0,-100.00,South,170,16.0,20.0,74,-99.99,,,-99.99,,2013-04-29 12:52:00,
2013-04-29 07:01:00,43.0,35.0,-100.00,South,170,13.0,19.0,73,-99.99,,,-99.99,,2013-04-29 13:01:00,
2013-04-29 07:11:00,43.0,35.0,-100.00,South,170,13.0,19.0,73,-99.99,,,-99.99,,2013-04-29 13:11:00,
2013-04-29 07:21:00,44.0,36.0,-100.00,South,180,10.0,18.0,72,-99.99,,,-99.99,,2013-04-29 13:21:00,
2013-04-29 07:31:00,45.0,38.0,-100.00,South,180,7.0,12.0,76,-99.99,,,-99.99,,2013-04-29 13:31:00,
2013-04-29 07:42:00,45.0,38.0,-100.00,South,180,7.0,12.0,76,-99.99,,,-99.99,,2013-04-29 13:42:00,
2013-04-29 07:52:00,45.0,38.0,-100.00,South,175,12.0,17.0,74,-99.99,,,-99.99,,2013-04-29 13:52:00,
2013-04-29 08:02:00,47.0,38.0,-100.00,South,185,12.0,15.0,72,-99.99,,,-99.99,,2013-04-29 14:02:00,
2013-04-29 08:11:00,47.0,38.0,-100.00,South,185,12.0,15.0,72,-99.99,,,-99.99,,2013-04-29 14:11:00,
2013-04-29 08:21:00,48.0,39.0,-100.00,SSW,195,13.0,17.0,69,-99.99,,,-99.99,,2013-04-29 14:21:00,
2013-04-29 08:32:00,49.0,38.0,-100.00,SSW,200,21.0,25.0,65,-99.99,,,-99.99,,2013-04-29 14:32:00,
2013-04-29 08:42:00,49.0,38.0,-100.00,SSW,200,21.0,25.0,65,-99.99,,,-99.99,,2013-04-29 14:42:00,
2013-04-29 08:52:00,50.0,38.0,-100.00,SSW,200,20.0,25.0,63,-99.99,,,-99.99,,2013-04-29 14:52:00,
2013-04-29 09:01:00,51.0,38.0,-100.00,SSW,200,20.0,24.0,60,-99.99,,,-99.99,,2013-04-29 15:01:00,
2013-04-29 09:12:00,51.0,38.0,-100.00,SSW,200,20.0,24.0,60,-99.99,,,-99.99,,2013-04-29 15:12:00,
2013-04-29 09:21:00,51.0,38.0,-100.00,SSW,210,19.0,25.0,58,-99.99,,,-99.99,,2013-04-29 15:21:00,
2013-04-29 09:33:00,53.0,38.0,-100.00,SW,215,17.0,25.0,56,-99.99,,,-99.99,,2013-04-29 15:33:00,
2013-04-29 09:42:00,53.0,38.0,-100.00,SW,215,17.0,25.0,56,-99.99,,,-99.99,,2013-04-29 15:42:00,
2013-04-29 09:53:00,54.0,38.0,-100.00,SW,215,16.0,23.0,54,-99.99,,,-99.99,,2013-04-29 15:53:00,
2013-04-29 10:02:00,55.0,37.0,-100.00,SW,215,14.0,19.0,50,-99.99,,,-99.99,,2013-04-29 16:02:00,
2013-04-29 10:12:00,55.0,37.0,-100.00,SW,215,14.0,19.0,50,-99.99,,,-99.99,,2013-04-29 16:12:00,
2013-04-29 10:23:00,56.0,37.0,-100.00,SW,225,14.0,20.0,49,-99.99,,,-99.99,,2013-04-29 16:23:00,
2013-04-29 10:33:00,58.0,36.0,-100.00,SSW,210,14.0,20.0,44,-99.99,,,-99.99,,2013-04-29 16:33:00,
2013-04-29 10:42:00,58.0,36.0,-100.00,SSW,210,14.0,20.0,44,-99.99,,,-99.99,,2013-04-29 16:42:00,
2013-04-29 10:52:00,59.0,35.0,-100.00,SW,230,15.0,18.0,41,-99.99,,,-99.99,,2013-04-29 16:52:00,
2013-04-29 11:02:00,61.0,33.0,-100.00,SW,235,13.0,18.0,34,-99.99,,,-99.99,,2013-04-29 17:02:00,
2013-04-29 11:12:00,61.0,33.0,-100.00,SW,235,13.0,18.0,34,-99.99,,,-99.99,,2013-04-29 17:12:00,
2013-04-29 11:22:00,62.0,33.0,-100.00,WSW,250,12.0,19.0,33,-99.99,,,-99.99,,2013-04-29 17:22:00,
2013-04-29 11:32:00,62.0,32.0,-100.00,WSW,245,10.0,15.0,32,-99.99,,,-99.99,,2013-04-29 17:32:00,
2013-04-29 11:42:00,62.0,32.0,-100.00,WSW,245,10.0,15.0,32,-99.99,,,-99.99,,2013-04-29 17:42:00,
2013-04-29 11:52:00,62.0,32.0,-100.00,SW,235,12.0,16.0,32,-99.99,,,-99.99,,2013-04-29 17:52:00,
2013-04-29 12:01:00,64.0,27.0,-100.00,WSW,250,10.0,19.0,24,-99.99,,,-99.99,,2013-04-29 18:01:00,
2013-04-29 12:13:00,64.0,27.0,-100.00,WSW,250,10.0,19.0,24,-99.99,,,-99.99,,2013-04-29 18:13:00,
2013-04-29 12:22:00,64.0,26.0,-100.00,WNW,290,14.0,18.0,24,-99.99,,,-99.99,,2013-04-29 18:22:00,
2013-04-29 12:32:00,65.0,26.0,-100.00,West,265,14.0,20.0,22,-99.99,,,-99.99,,2013-04-29 18:32:00,
2013-04-29 12:42:00,65.0,26.0,-100.00,West,265,14.0,20.0,22,-99.99,,,-99.99,,2013-04-29 18:42:00,
2013-04-29 12:52:00,64.0,26.0,-100.00,WSW,250,11.0,21.0,22,-99.99,,,-99.99,,2013-04-29 18:52:00,
2013-04-29 13:01:00,64.0,25.0,-100.00,WSW,255,9.0,20.0,22,-99.99,,,-99.99,,2013-04-29 19:01:00,
2013-04-29 13:11:00,64.0,25.0,-100.00,WSW,255,9.0,20.0,22,-99.99,,,-99.99,,2013-04-29 19:11:00,
2013-04-29 13:21:00,63.0,25.0,-100.00,West,280,13.0,17.0,22,-99.99,,,-99.99,,2013-04-29 19:21:00,
2013-04-29 13:32:00,63.0,25.0,-100.00,West,260,13.0,17.0,23,-99.99,,,-99.99,,2013-04-29 19:32:00,
2013-04-29 13:41:00,63.0,25.0,-100.00,West,260,13.0,17.0,23,-99.99,,,-99.99,,2013-04-29 19:41:00,
2013-04-29 13:52:00,63.0,25.0,-100.00,West,275,17.0,21.0,22,-99.99,,,-99.99,,2013-04-29 19:52:00,
2013-04-29 14:02:00,62.0,24.0,-100.00,WNW,300,14.0,21.0,23,-99.99,,,-99.99,,2013-04-29 20:02:00,
2013-04-29 14:12:00,62.0,24.0,-100.00,WNW,300,14.0,21.0,23,-99.99,,,-99.99,,2013-04-29 20:12:00,
2013-04-29 14:21:00,63.0,25.0,-100.00,West,280,16.0,21.0,23,-99.99,,,-99.99,,2013-04-29 20:21:00,
2013-04-29 14:32:00,64.0,25.0,-100.00,West,280,14.0,21.0,22,-99.99,,,-99.99,,2013-04-29 20:32:00,
2013-04-29 14:42:00,64.0,25.0,-100.00,West,280,14.0,21.0,22,-99.99,,,-99.99,,2013-04-29 20:42:00,
2013-04-29 14:52:00,63.0,25.0,-100.00,West,280,14.0,20.0,23,-99.99,,,-99.99,,2013-04-29 20:52:00,
2013-04-29 15:01:00,63.0,25.0,-100.00,West,280,10.0,18.0,23,-99.99,,,-99.99,,2013-04-29 21:01:00,
2013-04-29 15:11:00,63.0,25.0,-100.00,West,280,10.0,18.0,23,-99.99,,,-99.99,,2013-04-29 21:11:00,
2013-04-29 15:21:00,63.0,26.0,-100.00,WNW,285,12.0,15.0,23,-99.99,,,-99.99,,2013-04-29 21:21:00,
2013-04-29 15:33:00,63.0,26.0,-100.00,WNW,295,11.0,17.0,24,-99.99,,,-99.99,,2013-04-29 21:33:00,
2013-04-29 15:42:00,63.0,26.0,-100.00,WNW,295,11.0,17.0,24,-99.99,,,-99.99,,2013-04-29 21:42:00,
2013-04-29 15:53:00,62.0,26.0,-100.00,WNW,290,13.0,17.0,24,-99.99,,,-99.99,,2013-04-29 21:53:00,
2013-04-29 16:02:00,61.0,27.0,-100.00,West,260,16.0,27.0,27,-99.99,,,-99.99,,2013-04-29 22:02:00,
2013-04-29 16:13:00,61.0,27.0,-100.00,West,260,16.0,27.0,27,-99.99,,,-99.99,,2013-04-29 22:13:00,
2013-04-29 16:23:00,60.0,28.0,-100.00,West,265,16.0,20.0,28,-99.99,,,-99.99,,2013-04-29 22:23:00,
2013-04-29 16:32:00,58.0,31.0,-100.00,WNW,295,14.0,26.0,35,-99.99,,,-99.99,,2013-04-29 22:32:00,
2013-04-29 16:42:00,58.0,31.0,-100.00,WNW,295,14.0,26.0,35,-99.99,,,-99.99,,2013-04-29 22:42:00,
2013-04-29 16:52:00,59.0,32.0,-100.00,West,275,9.0,15.0,36,-99.99,,,-99.99,,2013-04-29 22:52:00,
2013-04-29 17:02:00,58.0,32.0,-100.00,WSW,255,9.0,22.0,36,-99.99,,,-99.99,,2013-04-29 23:02:00,
2013-04-29 17:11:00,58.0,32.0,-100.00,WSW,255,9.0,22.0,36,-99.99,,,-99.99,,2013-04-29 23:11:00,
2013-04-29 17:22:00,58.0,31.0,-100.00,WSW,240,14.0,19.0,35,-99.99,,,-99.99,,2013-04-29 23:22:00,
2013-04-29 17:32:00,59.0,30.0,-100.00,West,260,12.0,17.0,32,-99.99,,,-99.99,,2013-04-29 23:32:00,
2013-04-29 17:42:00,59.0,30.0,-100.00,West,260,12.0,17.0,32,-99.99,,,-99.99,,2013-04-29 23:42:00,
2013-04-29 17:52:00,59.0,29.0,-100.00,West,265,14.0,17.0,32,-99.99,,,-99.99,,2013-04-29 23:52:00,
2013-04-29 18:01:00,59.0,29.0,-100.00,West,270,16.0,20.0,32,-99.99,,,-99.99,,2013-04-30 00:01:00,
2013-04-29 18:11:00,59.0,29.0,-100.00,West,270,16.0,20.0,32,-99.99,,,-99.99,,2013-04-30 00:11:00,
2013-04-29 18:21:00,59.0,29.0,-100.00,West,260,17.0,21.0,32,-99.99,,,-99.99,,2013-04-30 00:21:00,
2013-04-29 18:32:00,58.0,26.0,-100.00,WSW,240,15.0,24.0,29,-99.99,,,-99.99,,2013-04-30 00:32:00,
2013-04-29 18:42:00,58.0,26.0,-100.00,WSW,240,15.0,24.0,29,-99.99,,,-99.99,,2013-04-30 00:42:00,
2013-04-29 18:52:00,58.0,26.0,-100.00,WSW,250,21.0,26.0,29,-99.99,,,-99.99,,2013-04-30 00:52:00,
2013-04-29 19:02:00,56.0,27.0,-100.00,West,270,21.0,32.0,32,-99.99,,,-99.99,,2013-04-30 01:02:00,
2013-04-29 19:11:00,56.0,27.0,-100.00,West,270,21.0,32.0,32,-99.99,,,-99.99,,2013-04-30 01:11:00,
2013-04-29 19:21:00,55.0,27.0,-100.00,WSW,250,14.0,20.0,33,-99.99,,,-99.99,,2013-04-30 01:21:00,
2013-04-29 19:32:00,55.0,27.0,-100.00,SW,225,13.0,19.0,34,-99.99,,,-99.99,,2013-04-30 01:32:00,
2013-04-29 19:41:00,55.0,27.0,-100.00,SW,225,13.0,19.0,34,-99.99,,,-99.99,,2013-04-30 01:41:00,
2013-04-29 19:52:00,54.0,27.0,-100.00,WSW,250,12.0,22.0,34,-99.99,,,-99.99,,2013-04-30 01:52:00,
2013-04-29 20:01:00,53.0,27.0,-100.00,West,265,11.0,18.0,36,-99.99,,,-99.99,,2013-04-30 02:01:00,
2013-04-29 20:11:00,53.0,27.0,-100.00,West,265,11.0,18.0,36,-99.99,,,-99.99,,2013-04-30 02:11:00,
2013-04-29 20:21:00,53.0,28.0,-100.00,West,280,8.0,15.0,37,-99.99,,,-99.99,,2013-04-30 02:21:00,
2013-04-29 20:31:00,53.0,28.0,-100.00,West,260,7.0,9.0,38,-99.99,,,-99.99,,2013-04-30 02:31:00,
2013-04-29 20:41:00,53.0,28.0,-100.00,West,260,7.0,9.0,38,-99.99,,,-99.99,,2013-04-30 02:41:00,
2013-04-29 20:51:00,51.0,29.0,-100.00,SW,220,8.0,9.0,41,-99.99,,,-99.99,,2013-04-30 02:51:00,
2013-04-29 21:01:00,50.0,32.0,-100.00,SW,230,12.0,16.0,49,-99.99,,,-99.99,,2013-04-30 03:01:00,
2013-04-29 21:11:00,50.0,32.0,-100.00,SW,230,12.0,16.0,49,-99.99,,,-99.99,,2013-04-30 03:11:00,
2013-04-29 21:21:00,50.0,33.0,-100.00,SW,235,12.0,14.0,52,-99.99,,,-99.99,,2013-04-30 03:21:00,
2013-04-29 21:33:00,49.0,35.0,-100.00,WSW,245,9.0,10.0,57,-99.99,,,-99.99,,2013-04-30 03:33:00,
2013-04-29 21:42:00,49.0,35.0,-100.00,WSW,245,9.0,10.0,57,-99.99,,,-99.99,,2013-04-30 03:42:00,
2013-04-29 21:52:00,49.0,36.0,-100.00,WNW,290,17.0,26.0,60,-99.99,,,-99.99,,2013-04-30 03:52:00,
2013-04-29 22:02:00,47.0,38.0,-100.00,WNW,295,12.0,17.0,69,-99.99,,,-99.99,,2013-04-30 04:02:00,
2013-04-29 22:12:00,47.0,38.0,-100.00,WNW,295,12.0,17.0,69,-99.99,,,-99.99,,2013-04-30 04:12:00,
2013-04-29 22:22:00,48.0,38.0,-100.00,West,280,11.0,15.0,69,-99.99,,,-99.99,,2013-04-30 04:22:00,
2013-04-29 22:32:00,47.0,38.0,-100.00,West,275,9.0,14.0,71,-99.99,,,-99.99,,2013-04-30 04:32:00,
2013-04-29 22:42:00,47.0,38.0,-100.00,West,275,9.0,14.0,71,-99.99,,,-99.99,,2013-04-30 04:42:00,
2013-04-29 22:52:00,47.0,38.0,-100.00,West,275,10.0,14.0,69,-99.99,,,-99.99,,2013-04-30 04:52:00,
2013-04-29 23:02:00,47.0,37.0,-100.00,West,265,14.0,18.0,69,-99.99,,,-99.99,,2013-04-30 05:02:00,
2013-04-29 23:12:00,47.0,37.0,-100.00,West,265,14.0,18.0,69,-99.99,,,-99.99,,2013-04-30 05:12:00,
2013-04-29 23:22:00,47.0,36.0,-100.00,WNW,290,9.0,17.0,66,-99.99,,,-99.99,,2013-04-30 05:22:00,
2013-04-29 23:31:00,47.0,35.0,-100.00,WNW,285,12.0,15.0,64,-99.99,,,-99.99,,2013-04-30 05:31:00,
2013-04-29 23:42:00,47.0,35.0,-100.00,WNW,285,12.0,15.0,64,-99.99,,,-99.99,,2013-04-30 05:42:00,
2013-04-29 23:51:00,48.0,34.0,-100.00,WNW,285,12.0,19.0,57,-99.99,,,-99.99,,2013-04-30 05:51:00,